Location: College Rock
(37.2713°N, 119.1740°W)
Time: 04:32:41
(UTC+00:00)

Cosmos 1400 Rocket - Pass Details

Date: 29 October 2020
Orbit: 521 x 568 km, 81.2° (Epoch: 23 November)

Event Time Altitude Azimuth Distance (km) Brightness Sun altitude
Rises 12:44:29 0° 352° (N) 2,686 6.2 -19.3°
Reaches altitude 10° 12:46:40 10° 353° (N) 1,785 5.3 -18.9°
Maximum altitude 12:50:35 82° 81° (E) 536 2.7 -18.1°
Drops below altitude 10° 12:54:26 10° 170° (S) 1,753 5.6 -17.3°
Sets 12:56:33 0° 171° (S) 2,633 6.5 -16.9°
